Showing default

ICEYE-X43, 60539

Orbit data source: Space-Track

ICEYE-X43, 60539 is a payload satellite owned by ICEYE in SSO that was launched on Fri, 16 Aug 2024 UTC via an FALCON 9 launch vehicle from the Air Force Western Test Range (AFWTR). Payload-class satellites include a variety of spacecraft equipped with specific instruments for various scientific and technological missions. These include communications satellites like Starlink; space stations such as the ISS; scientific satellites like the Hubble; Earth observation satellites from companies like Planet Labs, Umbra, and HawkEye 360; GPS; miniature CubeSats for education and research; and military/defense satellites.

Loading next visibility...
Identifier
60539, 2024-149BZ
Orbit
SSO
Country
Flag of FIFI
Related business
Manufacturer
ICEYE
Mission
Operational Commercial Radar Imaging
Bus & Motor
ICEYE, Unknown motor
Mass
80 kg wet, 80 kg dry
Launch date (UTC)
2024-08-16 (2 years ago)
Launch vehicle
FALCON 9
Launch site
Air Force Western Test Range (AFWTR)
Object type
Payload
Rocket body
Debris
Shape & HBR
Box + 1 Pan, 1.4 m
Radar Cross Section
0.776 m², Medium (>0.1 m² and < 1m²)

Expand to show TLE details & history
Last TLE update: 10 hours ago

TLE from 10 hours ago
0 ICEYE-X43
1 60539U 24149BZ  26257.49452444  .00002955  00000-0  24195-3 0  9996
2 60539  97.6715 333.2141 0010667 102.7672 257.4744 15.00027028113500
Epoch: 2026-09-14T11:52Z
TLE epoch observation values (Epoch: 2026-09-14T11:52:06.911Z)
Latitude
-0.00006°
Longitude
161.7113°
Altitude
571.483 km
Speed
7.574 km/s
True Right ascension
22h 12m 51s
True Declination
0° 00' 00"
Sunlit
Object was in full shadow at epoch
Visualization orbit readout
Latitude
Unknown
Longitude
Unknown
Altitude
Unknown
Speed
Unknown
Apparent Right ascension
Unknown
Apparent Declination
Unknown
Sunlit
N/A
Visualization observer readout
Local Sidereal Time
14:41:11
Azimuth
Unknown
Elevation
Unknown
Doppler factor
Unknown
Orbital elements
Apogee altitude
571.222 km
Perigee altitude
556.412 km
Semi-major axis
6,941.954 km
Eccentricity
0.00107
Inclination
97.6715°
RAAN
333.2141°
Arg. of periapsis
102.7672°
True anomaly
257.35511°
Mean anomaly
257.4744°
Eccentric anomaly
257.41475°
Mean motion
3.7525 °/min
Orbital period
95.94 mins
BSTAR
0.00024195
Loading maneuver chart data...
Computing Atmospheric mass density...
Loading historical data...
Loading historical data...
Loading historical data...
Loading historical data...
Loading historical data...
Loading historical data...
Loading historical data...

Documentation

Showing up to 5 results
|